Simultaneous Nadir Overpasses (SNOs) Predictions

Prediction of SNOs between AQUA and METOP-C Satellite Orbit:

Table of predicted SNOs for the next 14.0 days since TLE Epoch: 5/17/2019
Index Date (AQUA) Time (AQUA) Lat,Lon (AQUA) SZA (AQUA ) Date (METOP-C) Time (METOP-C) Lat,Lon (METOP-C) SZA (METOP-C ) Distance(km) Time Diff (sec)
1 05/18/2019 04:29:34 73.32, 107.95 53.79 05/18/2019 04:28:26 73.28, 106.04 53.82 61.28 68
2 05/18/2019 05:19:08 -73.80, -85.41 125.72 05/18/2019 05:18:58 -73.81, -85.43 125.71 1.45 10
3 05/18/2019 06:08:37 73.84, 82.12 54.32 05/18/2019 06:09:36 73.86, 82.04 54.34 3.48 59
4 05/21/2019 00:03:55 73.71, 173.58 53.60 05/21/2019 00:02:42 73.66, 173.29 53.56 10.37 73
5 05/21/2019 00:53:22 -73.81, -19.00 126.31 05/21/2019 00:53:22 -73.79, -19.08 126.33 3.28 0
6 05/21/2019 01:42:51 73.86, 148.52 53.75 05/21/2019 01:43:59 73.89, 148.50 53.76 2.88 68
7 05/23/2019 19:38:09 73.73,-120.04 53.07 05/23/2019 19:37:04 73.73,-120.13 53.08 2.76 65
8 05/23/2019 20:27:36 -73.83, 47.40 126.84 05/23/2019 20:27:45 -73.82, 47.40 126.85 1.29 9
9 05/23/2019 21:17:08 74.05,-145.45 53.39 05/23/2019 21:18:19 74.06,-144.68 53.37 23.73 71
10 05/26/2019 15:12:22 73.77, -53.67 52.60 05/26/2019 15:11:26 73.76, -53.67 52.59 1.31 56
11 05/26/2019 16:01:49 -73.86, 113.78 127.32 05/26/2019 16:02:07 -73.85, 113.87 127.33 2.94 18
12 05/26/2019 16:51:28 74.44, -79.93 53.30 05/26/2019 16:52:34 74.43, -77.34 53.22 77.38 66
13 05/29/2019 10:46:35 73.76, 12.80 52.13 05/29/2019 10:45:49 73.78, 12.80 52.16 2.76 46
14 05/29/2019 11:36:02 -73.84,-179.73 127.80 05/29/2019 11:36:31 -73.83,-179.78 127.81 1.81 29




NCC Satellite Simultaneous Nadir Overpasses (SNOs) Prediction Service
